Location: Guadanolo
(41.9167°N, 12.9333°E)
Time: 01:34:17
(UTC+00:00)

SAR-Lupe-2 - Pass Details

Date: 16 September 2019
Orbit: 481 x 485 km, 98.2° (Epoch: 07 October)

Event Time Altitude Azimuth Distance (km) Brightness Sun altitude
Rises 18:28:19 0° 11° (N) 2,560 7.3 -13.9°
Reaches altitude 10° 18:30:23 10° 10° (N) 1,674 6.4 -14.3°
Maximum altitude 18:33:59 77° 285° (WNW) 502 3.7 -14.9°
Drops below altitude 10° 18:37:32 10° 199° (SSW) 1,656 6.3 -15.5°
Sets 18:39:34 0° 198° (SSW) 2,523 7.2 -15.9°
